小惑星2009 YS6

2009 YS6

English version
Home page
Updated on November 11, 2012

---------------------------------------------------------------------

・ プロフィール

発見日 2009年12月17日
発見光度 21.5等
発見者 Mt. Lemmon Survey

・ 写真集

・ 軌道要素

The following orbital elements are taken from MPO234407

Epoch 2012 Sept. 30.0 TT = JDT 2456200.5                MPC
M   6.74878              (2000.0)            P               Q
n   0.01074125     Peri.  288.87026     +0.86137013     +0.16695045
a  20.3438407      Node   295.88506     +0.25437949     -0.95926278
e   0.9204875      Incl.  147.77398     -0.43969601     -0.22790891
P  91.8            H   14.3           G   0.15           U   0
From 141 observations at 4 oppositions, 2009-2012, mean residual 0".40.

・ 星図

・ 光度変化

        H = 14.0  G = 0.15

---------------------------------------------------------------------

軌道要素はMPCのEphemerides and Orbital Elementsに掲載されたものです。
星図はステラナビゲータ Ver.8 (アストロアーツ) で作成したものです。
光度グラフはComet for Windowsで作成したものです。

---------------------------------------------------------------------

Copyright(C) Seiichi Yoshida (comet@aerith.net). All rights reserved.